weather.gov     
National Weather Service

Terminal Aerodrome Forecast
NWS Homepage
This page is being discontinued on March 12, 2014.
The same data is available at this site. Please update your bookmarks.
Thank you, and we apologize for the inconvenience.
Please send an email to SR-SRH.Webmaster@noaa.gov with any concerns.


Current Version
Previous Version:    01  02  03  04  05  06  07  08  09  10  11  12  13  14  15  16  17  18  19  20  21  22  23  
[Printable]
005
FTUS44 KLZK 181700 RRA
TAFHOT
TAF
KHOT 181741Z 1818/1918 10004KT P6SM OVC007
     FM190100 10003KT 5SM BR OVC005
     FM190800 10003KT 4SM BR OVC004
      TEMPO 1909/1913 1SM -DZ BR OVC002
     FM191600 09004KT 6SM BR VCSH OVC007=


U.S. Dept. of Commerce
NOAA National Weather Service
1325 East West Highway
Silver Spring, MD 20910
E-mail: w-nws.webmaster@noaa.gov
Page last modified: May 16, 2007
NATIONAL WEATHER SERVICE: for Safety, for Work, for Fun - FOR LIFE